SCP
0 0 0 0 1 1 1 1 1 2 2 3 4 3 3 4 6 7 7 5 4 4 6 8 8 8 6 5 5 6 7 7 6 5 5 5 5 5 5 4 4 3 3 2
0 0 0 0 1 1 1 1 1 2 2 3 4 4 4 5 6 7 6 5 5 6 7 8 8 7 6 6 6 7 7 7 6 6 7 7 6 6 6 6 5 5 4 4
0 0 0 0 0 1 1 1 1 2 2 3 4 4 4 5 6 6 5 4 5 7 8 7 7 6 7 7 7 7 7 7 7 7 8 8 8 8 8 9 8 8 7 6
0 0 0 0 1 1 1 1 1 1 2 3 4 5 5 5 5 4 4 4 5 6 6 6 6 7 9 10 9 8 7 7 7 7 7 7 8 9 10 10 11 10 9 9
0 0 0 1 1 1 1 1 2 2 3 5 6 6 6 5 5 5 5 5 5 5 5 6 7 8 10 11 10 8 7 7 6 7 7 7 7 8 9 10 11 11 11 11
0 0 0 1 1 1 1 1 2 3 5 6 6 6 5 5 6 6 6 6 5 5 6 7 8 8 9 9 8 7 6 6 6 7 7 7 7 7 8 9 10 10 11 12
0 0 0 1 1 1 1 2 3 4 5 4 4 4 4 6 7 7 7 6 6 6 7 8 9 9 8 6 5 5 5 6 7 7 8 7 7 7 7 8 9 10 11 11
0 0 1 1 1 1 1 2 3 4 4 3 2 2 3 4 6 6 7 6 6 6 8 10 11 10 7 6 5 4 4 6 8 9 9 8 8 7 7 8 9 10 11 11
1 1 1 1 2 2 2 2 2 3 3 2 2 2 2 3 4 4 5 5 5 6 9 12 11 9 7 6 4 3 3 5 7 9 9 9 9 9 8 9 10 10 11 11
3 3 2 2 2 2 2 2 2 2 1 1 1 1 2 2 3 3 3 3 3 5 8 10 9 8 7 6 4 3 3 4 5 6 7 8 9 9 8 8 9 10 11 11
4 3 3 2 2 2 2 3 3 2 1 1 1 1 1 2 3 3 3 2 2 3 4 5 6 6 6 5 4 3 3 3 4 5 6 7 8 7 6 6 7 9 9 10
4 3 3 2 2 1 2 3 4 5 4 3 2 2 1 2 2 3 3 2 2 2 3 4 5 6 5 5 5 4 3 3 4 5 7 8 7 6 5 5 5 5 5 5
4 4 3 2 1 1 2 3 5 8 10 10 8 5 3 3 3 3 3 2 2 3 5 6 7 7 6 5 5 5 4 4 5 6 8 8 8 7 5 4 3 3 2 2
5 4 3 1 1 1 1 2 3 6 12 16 16 12 8 7 6 4 4 4 5 7 8 9 10 9 6 5 5 4 4 4 5 6 8 8 8 7 6 4 3 3 2 1
3 3 1 1 1 1 1 1 1 3 7 13 15 14 12 10 8 6 5 6 7 8 9 9 8 7 5 4 3 3 3 3 4 5 6 6 6 6 5 4 4 4 3 2
2 1 1 0 0 0 0 0 0 1 3 6 8 10 10 9 8 7 6 6 6 7 6 5 4 3 2 2 3 3 2 2 3 4 4 4 4 4 3 3 4 4 3 2
1 0 0 0 0 0 0 0 0 0 1 2 4 6 7 8 7 6 5 4 5 5 4 3 2 1 2 2 2 3 2 1 2 3 4 4 4 3 3 2 3 4 3 2
0 0 0 0 0 0 0 0 0 1 2 3 5 7 8 8 6 4 4 4 4 4 4 2 2 1 1 1 2 2 2 1 1 2 4 5 5 4 3 3 3 3 3 2
0 0 0 0 0 0 0 0 0 2 4 5 6 7 7 5 3 3 4 5 5 4 3 2 1 1 1 1 1 2 2 2 1 2 3 5 6 6 5 4 3 3 3 3
0 0 0 0 0 0 0 0 1 3 5 6 6 5 3 2 1 2 4 5 5 4 2 1 0 0 0 0 1 2 2 2 2 1 2 3 5 6 7 6 5 4 4 4
0 0 0 0 0 0 0 0 1 4 6 6 4 2 1 0 1 2 3 4 5 4 2 1 0 0 0 0 0 1 2 2 2 1 2 2 2 4 5 6 6 6 5 4
0 0 0 0 0 0 0 0 2 4 5 4 3 1 0 0 0 1 3 4 3 2 1 1 0 0 0 0 0 0 1 1 1 1 2 2 1 1 2 3 5 5 5 5
0 0 0 0 0 0 0 1 3 5 4 3 1 0 0 0 1 1 2 2 2 1 1 1 1 0 0 0 0 0 0 1 1 1 1 2 1 1 0 1 2 2 4 5
0 1 1 1 1 1 1 2 3 3 3 1 1 0 0 0 1 1 2 2 1 0 0 0 0 0 0 0 0 0 0 0 0 0 1 1 1 1 0 0 0 0 1 2
0 0 1 1 1 1 1 2 2 2 1 1 0 0 0 1 1 1 1 1 0 0 0 0 0 0 0 0 0 0 0 0 0 0 0 1 1 1 0 0 0 0 0 0
0 0 1 1 1 1 1 1 1 1 0 0 0 0 1 1 1 1 1 1 0 0 0 0 0 0 0 0 0 0 0 0 0 0 0 0 1 1 1 0 0 0 0 0
0 1 1 1 1 1 1 1 1 1 0 0 0 0 0 1 1 1 1 1 0 0 0 0 0 0 0 0 0 0 0 0 0 0 0 0 1 1 1 0 0 0 0 0
Wind_Speed
3 3 1 2 3 1 3 7 7 7 8 9 9 8 6 4 4 5 5 5 4 4 4 4 4 4 5 5 5 6 6 5 5 5 4 4 4 4 3 3 3 3 2 1
3 3 4 3 3 3 0 3 6 6 3 5 6 5 5 5 6 6 5 4 3 3 4 4 4 4 4 4 5 6 6 5 4 4 4 4 4 4 3 3 3 3 3 2
2 4 4 3 2 0 1 1 5 5 6 6 7 7 6 7 7 6 5 4 3 3 3 3 3 3 4 4 4 5 5 4 4 4 4 4 4 3 4 4 3 3 3 3
1 3 1 6 3 2 4 3 2 4 5 7 8 7 5 6 7 6 5 4 3 2 2 1 1 3 3 4 4 4 4 3 4 4 4 4 3 3 3 3 3 3 3 3
3 2 3 5 3 0 4 3 3 6 6 6 7 8 5 3 5 6 5 4 3 3 3 3 3 3 4 4 3 3 3 4 4 5 4 4 4 4 3 2 2 2 2 2
4 3 4 5 6 2 6 2 3 5 6 5 6 5 1 1 5 6 5 4 3 2 3 3 2 3 4 3 3 2 3 3 4 4 4 4 4 4 2 2 2 2 1 2
3 3 4 5 6 3 4 4 0 4 4 4 3 4 5 4 4 5 5 4 3 3 2 2 2 4 3 2 2 2 1 1 2 3 4 4 3 3 2 2 2 2 2 2
2 2 4 6 3 3 4 3 4 5 5 5 4 5 5 5 5 4 4 4 3 3 1 1 2 4 3 1 2 1 1 1 1 2 2 2 2 2 2 3 3 2 2 2
4 4 4 1 3 2 5 5 4 4 5 5 5 4 4 4 4 4 3 2 2 3 2 0 1 3 3 2 1 1 1 0 1 1 1 2 3 3 2 3 2 2 3 3
3 1 2 4 6 5 5 6 5 5 5 5 4 4 3 3 3 2 2 2 2 2 2 0 0 1 1 1 1 2 1 0 1 1 1 1 2 2 3 3 3 3 3 3
2 0 3 4 4 4 4 6 6 5 4 4 4 3 2 2 2 2 2 2 2 2 1 1 1 0 0 1 2 1 1 1 1 1 1 1 1 1 2 3 4 4 4 4
4 4 2 3 2 2 4 4 4 5 4 3 3 3 3 1 1 2 1 1 1 1 1 2 1 1 1 1 2 2 1 1 1 1 1 1 1 1 3 2 4 5 5 5
3 3 3 3 1 2 3 3 3 4 4 3 2 3 2 1 1 1 1 1 2 2 2 1 1 1 2 1 1 2 2 2 1 1 2 2 1 1 1 3 2 3 4 5
2 3 1 0 1 1 3 3 3 3 2 2 2 2 2 1 1 1 2 3 2 2 1 1 1 2 3 1 1 1 2 2 2 2 2 2 2 2 2 2 2 2 3 4
1 2 3 2 1 1 1 2 3 1 1 1 1 1 1 1 1 2 2 2 2 1 1 1 1 3 3 1 1 1 1 1 2 2 2 2 2 2 2 2 2 2 1 2
1 1 2 2 1 1 1 1 2 2 1 1 1 1 1 2 2 1 1 2 2 3 3 3 3 3 3 1 1 1 1 2 1 1 1 1 1 1 2 2 2 2 2 2
1 1 1 1 2 2 2 2 2 2 2 2 2 1 1 1 0 1 2 2 2 3 3 3 4 3 2 2 2 2 2 2 2 1 1 2 2 2 2 2 2 3 3 3
3 4 4 4 4 2 2 2 2 2 2 2 2 1 1 1 2 3 3 2 1 1 2 3 3 2 2 2 2 1 1 1 1 1 1 1 2 2 2 2 3 3 2 2
1 2 2 2 2 2 2 2 3 3 2 2 2 2 2 2 2 3 2 1 1 2 4 4 4 2 2 3 2 1 1 1 1 1 1 2 2 2 2 2 3 3 3 2
1 0 0 1 1 1 2 2 2 2 2 3 2 2 2 2 2 2 2 3 4 4 4 3 3 2 3 3 2 1 1 2 2 2 1 1 2 2 2 3 3 3 3 3
1 1 1 1 1 1 1 1 1 2 3 3 3 3 3 3 3 2 2 3 4 3 3 3 2 2 2 2 2 1 1 2 2 2 2 2 2 3 3 3 3 3 3 3
1 1 2 1 1 2 2 1 2 2 2 2 3 3 2 3 3 3 3 4 4 4 3 2 2 3 3 3 2 2 2 2 2 2 3 3 3 3 3 3 3 3 3 3
2 2 2 2 1 2 2 2 2 2 2 3 3 3 3 3 3 2 3 3 3 4 3 3 3 4 4 3 2 3 3 3 3 3 3 3 3 3 3 3 2 2 2 3
1 2 3 2 1 1 2 3 2 1 1 1 2 2 2 2 2 3 2 2 2 3 2 3 4 5 4 2 2 2 3 3 3 3 3 3 2 2 2 2 2 2 2 3
1 2 1 1 1 1 2 2 1 1 1 1 1 2 2 2 2 2 1 1 2 2 2 3 4 5 3 2 2 2 2 3 3 2 2 2 2 3 2 2 2 2 2 2
1 1 2 1 1 2 2 1 1 1 1 1 2 2 2 1 1 1 0 1 1 2 2 2 2 2 2 2 2 2 2 2 2 2 2 2 2 2 2 1 2 1 1 1
1 1 1 2 2 2 2 1 1 1 1 1 2 2 1 1 1 1 1 1 1 1 1 1 1 1 1 1 1 1 1 1 1 1 1 1 1 1 1 2 1 1 1 1
Wind_Direction
218 247 275 323 324 324 164 174 174 198 188 204 197 188 184 173 158 127 115 117 126 128 132 145 156 162 157 155 157 157 156 161 175 178 174 173 173 174 184 182 174 173 172 176
351 356 8 14 9 29 356 161 152 145 190 208 177 152 147 154 143 126 119 123 131 133 133 142 154 158 151 155 163 158 160 172 175 168 168 175 180 177 181 185 184 178 188 193
303 323 30 347 278 160 53 102 160 178 197 151 136 147 156 149 138 133 131 135 145 150 148 149 148 146 159 162 149 149 158 165 165 167 173 183 186 182 190 196 193 199 204 197
152 34 209 246 266 101 96 49 83 122 139 149 146 137 124 131 139 139 138 134 136 124 104 83 95 112 118 120 129 138 146 159 171 176 185 188 184 192 205 199 197 204 206 205
126 169 262 299 318 17 115 52 47 111 120 125 121 88 61 81 120 132 131 130 132 135 126 108 99 102 106 113 122 135 158 179 189 187 188 189 195 202 206 195 200 207 203 196
138 157 218 257 288 290 101 52 3 93 117 122 100 103 204 134 107 105 104 113 116 114 105 109 117 112 109 117 128 155 187 197 198 194 191 197 200 202 199 186 195 188 201 200
154 187 248 278 302 43 118 215 227 92 102 100 113 170 173 130 110 112 109 108 107 106 114 149 143 123 124 130 169 211 210 193 205 204 200 201 194 187 176 170 164 171 189 209
121 130 260 309 26 108 182 160 109 92 85 83 104 116 123 125 123 112 97 90 100 104 108 162 137 128 134 192 234 218 173 198 219 214 207 189 173 174 171 169 171 192 197 219
165 196 243 335 99 122 124 107 100 103 102 101 106 117 123 131 132 124 121 108 102 119 109 60 136 142 163 229 234 135 108 197 224 213 202 185 179 180 179 177 179 201 201 214
74 19 24 56 68 60 82 93 92 101 106 97 109 116 109 120 134 132 128 117 102 102 105 82 323 138 183 212 153 123 134 271 237 195 207 204 194 185 184 190 194 206 208 216
76 355 31 32 59 74 75 86 87 86 89 101 106 115 121 127 152 160 157 148 126 129 165 219 220 187 192 194 147 139 180 230 220 199 195 194 216 218 209 212 202 200 211 205
202 212 174 256 274 101 100 103 104 95 79 79 100 114 106 113 154 162 160 146 133 153 205 231 220 264 263 211 165 165 198 242 234 210 209 195 190 317 310 261 230 217 214 207
194 184 173 212 197 99 101 107 113 115 117 113 98 117 120 155 188 170 165 161 179 199 212 228 226 288 290 271 187 197 224 236 232 214 203 214 204 196 282 317 297 246 228 217
161 118 81 88 141 98 100 102 99 95 102 114 113 112 121 131 130 155 206 211 196 182 199 220 222 274 279 253 204 243 249 244 228 217 209 214 220 220 212 217 263 291 274 236
294 149 174 185 126 95 107 105 101 92 70 59 93 115 135 148 210 228 226 210 172 170 215 218 229 269 279 257 215 240 250 251 241 221 210 212 214 216 229 233 232 243 268 277
282 114 135 139 157 193 175 136 149 181 191 195 189 196 188 194 217 234 231 187 174 210 223 213 226 246 256 258 250 251 250 265 257 214 212 218 220 215 224 229 227 221 227 232
154 204 199 213 220 217 209 203 195 204 208 207 213 202 166 131 172 267 261 230 207 221 228 227 233 239 247 249 239 238 249 258 251 222 216 220 219 225 226 223 222 220 231 229
228 214 203 203 208 214 230 219 205 203 203 215 209 189 175 177 213 238 249 258 258 283 275 258 240 236 245 249 248 243 239 244 234 229 230 233 233 223 223 224 222 226 243 239
226 214 226 233 205 192 220 235 226 217 210 189 181 195 206 214 222 230 243 241 223 243 263 264 256 247 239 250 255 232 231 236 250 254 248 259 262 241 228 226 226 227 226 225
356 333 216 190 193 195 219 238 229 220 214 189 187 213 246 254 243 235 228 232 233 229 235 252 256 250 247 249 246 205 211 226 238 254 260 257 258 256 242 235 228 225 224 222
294 313 305 271 273 265 240 231 224 225 226 208 202 216 234 252 252 241 230 252 264 242 231 243 245 252 249 244 239 214 219 230 243 251 252 256 259 256 251 245 234 227 225 226
266 288 296 295 310 303 287 270 242 229 232 235 226 222 233 253 262 262 243 233 238 227 220 226 231 238 244 241 223 218 232 238 238 239 241 244 241 242 244 240 238 241 236 230
261 258 266 258 242 263 294 298 264 227 225 228 224 223 226 235 238 236 261 261 240 231 225 228 235 238 243 238 228 225 232 238 240 237 233 234 235 237 235 231 229 237 241 238
253 254 252 244 233 246 278 281 282 270 250 240 239 235 228 244 269 256 243 245 244 243 243 246 249 246 244 240 236 238 244 244 242 238 233 232 234 238 234 234 237 236 240 242
276 278 265 244 256 254 258 277 296 305 286 279 272 262 242 214 218 247 262 251 244 239 249 254 255 256 252 251 241 245 254 253 250 239 229 227 235 237 236 235 237 237 237 233
270 262 260 242 231 233 239 237 243 263 267 278 287 288 287 280 243 242 276 272 256 256 253 247 250 249 249 255 252 246 257 268 262 246 236 235 239 233 230 234 235 231 233 222
291 290 306 314 302 270 243 223 222 245 247 240 269 287 287 283 273 258 255 270 265 254 262 262 247 235 241 246 255 268 273 273 267 261 258 247 232 224 222 220 220 218 207 192